User: anonymous   Login
Location: Unspecified
(0.0000°N, 0.0000°E)
Time: 09:22:43
(UTC+00:00)
Language:

NTS 1 - Orbit

View from above orbital plane
View from above orbital plane
View from above satellite
View from above satellite

Ground track
Ground track

The orbit data is extracted from the following two-line orbital elements,

1  7369U 74054A   17086.49287001 +.00000054 +00000-0 +00000-0 0  9997
2  7369 124.8640 245.3998 0074533 237.8439 181.8863 03.07214043479122
Epoch (UTC): 27 March 2017 11:49:43
Eccentricity: 0.0074533
inclination: 124.8640°
perigee height: 13461 km
apogee height: 13759 km
right ascension of ascending node: 245.3998°
argument of perigee: 237.8439°
revolutions per day: 3.07214043
mean anomaly at epoch: 181.8863°
orbit number at epoch: 47912

The dashed part of the orbit path shows where the satellite is in the earth's shadow,  

DLR